Rifle, CO

4:09 PM MDT on April 30, 2017 (GMT -0600)
Garfield County Regional

Weather History for KRIL - August, 2014

Change the Weather History Date:

Thursday, August 14, 2014

  Actual Average Record
Temperature  
Mean Temperature 70 °F 71 °F  
Max Temperature 79 °F 89 °F 100 °F (1940)
Min Temperature 61 °F 54 °F 41 °F (1950)
Degree Days  
Heating Degree Days 0 0  
Month to date heating degree days 0 0  
Since 1 June heating degree days 40 60  
Since 1 July heating degree days 0 1  
Cooling Degree Days 5 6  
Month to date cooling degree days 83 101  
Year to date cooling degree days 476 444  
Since 1 June cooling degree days 462 437  
Growing Degree Days 20 (Base 50)    
Moisture  
Dew Point 59 °F    
Average Humidity 70    
Maximum Humidity 97    
Minimum Humidity 43    
Precipitation  
Precipitation 0.22 in 0.04 in 0.60 in (1934)
Month to date precipitation 0.84 0.64  
Year to date precipitation 6.32 8.21  
Sea Level Pressure  
Sea Level Pressure 30.09 in    
Wind  
Wind Speed 4 mph (NNE)    
Max Wind Speed 15 mph    
Max Gust Speed 18 mph    
Visibility 8 miles    
Events Rain    
T = Trace of Precipitation, MM = Missing Value Source: NWS Daily Summary

Daily Weather History Graph

Daily Weather History Graph

Search for Another Location

Airport or City:

Trip Planner

Search our weather history database for the weather conditions in past years. The results will help you decide how hot, cold, wet, or windy it might be!

Date:

Astronomy

Aug. 14, 2014 Rise Set
Actual Time 6:22 AM MDT 8:07 PM MDT
Civil Twilight 5:53 AM MDT 8:36 PM MDT
Nautical Twilight 5:18 AM MDT 9:11 PM MDT
Astronomical Twilight 4:41 AM MDT 9:48 PM MDT
Moon 10:34 PM MDT (8/14) 11:01 AM MDT (8/14)
Length of Visible Light 14h 43m
Length of Day
13h 45m
Waning Gibbous, 78% of the Moon is Illuminated
Aug 14
Waning Gibbous
Aug 17
Last Quarter
Aug 25
New
Sep 2
First Quarter
Sep 8
Full

Hourly Weather History & Observations

Time (MDT) Temp. Dew Point Humidity Pressure Visibility Wind Dir Wind Speed Gust Speed Precip Events Conditions
12:53 AM 63.0 °F 59.0 °F 87% 29.99 in 10.0 mi Calm Calm - N/A   Overcast
1:53 AM 63.0 °F 59.0 °F 87% 29.98 in 10.0 mi Calm Calm - N/A   Overcast
2:53 AM 62.1 °F 59.0 °F 90% 29.97 in 10.0 mi Calm Calm - N/A   Overcast
3:53 AM 63.0 °F 59.0 °F 87% 29.97 in 10.0 mi Calm Calm - 0.00 in   Overcast
4:53 AM 62.1 °F 60.1 °F 93% 29.97 in 10.0 mi Calm Calm - N/A   Overcast
5:43 AM 62.1 °F 60.1 °F 93% 30.19 in 10.0 mi Calm Calm - N/A   Overcast
5:51 AM 62.6 °F 60.8 °F 94% 30.19 in 10.0 mi Calm Calm - N/A   Overcast
5:53 AM 62.1 °F 59.0 °F 90% 29.98 in 10.0 mi Calm Calm - N/A   Overcast
6:19 AM 63.0 °F 60.1 °F 90% 30.19 in 10.0 mi Calm Calm - N/A   Overcast
6:53 AM 62.1 °F 59.0 °F 90% 30.00 in 10.0 mi Calm Calm - N/A   Overcast
7:45 AM 62.1 °F 61.0 °F 96% 30.22 in 5.0 mi North 3.5 mph - 0.03 in Rain Light Rain
7:53 AM 62.1 °F 61.0 °F 96% 30.06 in 6.0 mi North 3.5 mph - 0.03 in Rain Light Rain
7:56 AM 62.1 °F 60.1 °F 93% 30.22 in 6.0 mi Calm Calm - 0.01 in Rain Light Rain
8:08 AM 62.1 °F 60.1 °F 93% 30.22 in 7.0 mi Calm Calm - 0.01 in Rain Light Rain
8:19 AM 62.1 °F 60.1 °F 93% 30.23 in 6.0 mi Calm Calm - 0.02 in Rain Light Rain
8:53 AM 61.0 °F 59.0 °F 93% 30.08 in 1.2 mi Calm Calm - 0.10 in Rain Heavy Rain
8:58 AM 61.0 °F 59.0 °F 93% 30.23 in 1.0 mi Calm Calm - 0.04 in Rain Heavy Rain
9:04 AM 62.1 °F 59.0 °F 90% 30.23 in 2.0 mi Calm Calm - 0.05 in Rain Rain
9:13 AM 62.1 °F 60.1 °F 93% 30.24 in 4.0 mi Calm Calm - 0.07 in Rain Light Rain
9:31 AM 62.1 °F 61.0 °F 96% 30.24 in 4.0 mi Calm Calm - 0.09 in Rain Light Rain
9:53 AM 63.0 °F 60.1 °F 90% 30.08 in 10.0 mi ENE 3.5 mph - 0.09 in Rain Light Rain
10:30 AM 64.9 °F 60.1 °F 84% 30.24 in 10.0 mi Variable 3.5 mph - 0.00 in   Overcast
10:39 AM 64.9 °F 60.1 °F 84% 30.24 in 10.0 mi NE 3.5 mph - 0.00 in   Overcast
10:50 AM 66.2 °F 59.0 °F 78% 30.23 in 10.0 mi NNE 3.5 mph - 0.00 in   Overcast
10:53 AM 66.0 °F 59.0 °F 78% 30.07 in 10.0 mi NE 3.5 mph - 0.00 in   Overcast
11:15 AM 66.0 °F 60.1 °F 81% 30.23 in 10.0 mi North 3.5 mph - 0.00 in Rain Light Rain
11:53 AM 66.9 °F 59.0 °F 76% 30.06 in 10.0 mi Variable 4.6 mph - 0.00 in   Scattered Clouds
12:53 PM 68.0 °F 57.9 °F 70% 30.05 in 10.0 mi Calm Calm - N/A   Overcast
1:53 PM 73.0 °F 60.1 °F 64% 30.02 in 10.0 mi NNE 4.6 mph - N/A   Partly Cloudy
2:53 PM 75.9 °F 57.9 °F 54% 29.99 in 10.0 mi Calm Calm - N/A   Clear
3:53 PM 78.1 °F 57.9 °F 50% 29.96 in 10.0 mi Variable 6.9 mph - N/A   Clear
4:53 PM 78.1 °F 55.0 °F 45% 29.95 in 10.0 mi West 10.4 mph - N/A   Scattered Clouds
5:53 PM 75.9 °F 52.0 °F 43% 29.94 in 10.0 mi West 11.5 mph - N/A   Clear
6:53 PM 75.9 °F 53.1 °F 45% 29.94 in 10.0 mi West 11.5 mph - N/A   Clear
7:53 PM 73.0 °F 55.9 °F 55% 29.95 in 10.0 mi West 5.8 mph - N/A   Scattered Clouds
8:53 PM 68.0 °F 57.9 °F 70% 29.99 in 10.0 mi East 6.9 mph - N/A   Clear
9:53 PM 66.9 °F 59.0 °F 76% 30.02 in 10.0 mi SE 5.8 mph - N/A   Scattered Clouds
10:53 PM 64.9 °F 57.0 °F 75% 30.02 in 10.0 mi East 5.8 mph - N/A   Clear
11:53 PM 64.0 °F 55.9 °F 75% 30.02 in 10.0 mi SSE 5.8 mph - N/A   Clear